Year,Month,Day,Hour,Minute,Value (Times are PST for windgust in km/hr)
2012,12,05,00,00,3.20
2012,12,05,00,01,3.20
2012,12,05,00,02,4.80
2012,12,05,00,03,3.20
2012,12,05,00,04,6.40
2012,12,05,00,05,1.60
2012,12,05,00,06,3.20
2012,12,05,00,08,6.40
2012,12,05,00,09,9.60
2012,12,05,00,10,6.40
2012,12,05,00,11,4.80
2012,12,05,00,12,4.80
2012,12,05,00,18,1.60
2012,12,05,00,19,6.40
2012,12,05,00,20,1.60
2012,12,05,00,21,1.60
2012,12,05,00,22,6.40
2012,12,05,00,23,3.20
2012,12,05,00,24,11.30
2012,12,05,00,25,14.50
2012,12,05,00,26,6.40
2012,12,05,00,28,4.80
2012,12,05,00,29,1.60
2012,12,05,00,32,3.20
2012,12,05,00,33,3.20
2012,12,05,00,34,6.40
2012,12,05,00,35,3.20
2012,12,05,00,36,1.60
2012,12,05,00,37,1.60
2012,12,05,00,38,11.30
2012,12,05,00,39,6.40
2012,12,05,00,40,3.20
2012,12,05,00,41,6.40
2012,12,05,00,42,1.60
2012,12,05,00,44,1.60
2012,12,05,00,45,1.60
2012,12,05,00,48,4.80
2012,12,05,00,49,1.60
2012,12,05,00,50,12.90
2012,12,05,00,51,1.60
2012,12,05,00,52,19.30
2012,12,05,00,53,11.30
2012,12,05,00,54,4.80
2012,12,05,00,55,6.40
2012,12,05,00,56,1.60
2012,12,05,00,57,3.20
2012,12,05,00,58,4.80
2012,12,05,00,59,3.20
2012,12,05,01,00,8.10
2012,12,05,01,01,9.60
2012,12,05,01,02,20.90
2012,12,05,01,03,14.50
2012,12,05,01,04,4.80
2012,12,05,01,05,6.40
2012,12,05,01,06,11.30
2012,12,05,01,07,25.70
2012,12,05,01,08,11.30
2012,12,05,01,09,6.40
2012,12,05,01,10,3.20
2012,12,05,01,11,6.40
2012,12,05,01,12,17.70
2012,12,05,01,13,19.30
2012,12,05,01,14,12.90
2012,12,05,01,15,20.90
2012,12,05,01,16,30.60
2012,12,05,01,17,33.80
2012,12,05,01,18,22.50
2012,12,05,01,19,22.50
2012,12,05,01,20,24.20
2012,12,05,01,21,17.70
2012,12,05,01,22,16.10
2012,12,05,01,23,17.70
2012,12,05,01,24,14.50
2012,12,05,01,25,17.70
2012,12,05,01,26,19.30
2012,12,05,01,27,11.30
2012,12,05,01,28,22.50
2012,12,05,01,29,14.50
2012,12,05,01,30,17.70
2012,12,05,01,31,8.10
2012,12,05,01,32,9.60
2012,12,05,01,33,17.70
2012,12,05,01,34,17.70
2012,12,05,01,35,6.40
2012,12,05,01,36,14.50
2012,12,05,01,37,20.90
2012,12,05,01,38,17.70
2012,12,05,01,39,16.10
2012,12,05,01,40,8.10
2012,12,05,01,41,9.60
2012,12,05,01,42,9.60
2012,12,05,01,43,11.30
2012,12,05,01,44,8.10
2012,12,05,01,45,6.40
2012,12,05,01,46,6.40
2012,12,05,01,47,6.40
2012,12,05,01,48,3.20
2012,12,05,01,49,3.20
2012,12,05,01,50,14.50
2012,12,05,01,51,9.60
2012,12,05,01,52,3.20
2012,12,05,01,53,3.20
2012,12,05,01,54,14.50
2012,12,05,01,55,8.10
2012,12,05,01,56,4.80
2012,12,05,01,57,3.20
2012,12,05,01,58,3.20
2012,12,05,01,59,16.10
2012,12,05,02,00,16.10
2012,12,05,02,01,20.90
2012,12,05,02,02,16.10
2012,12,05,02,03,17.70
2012,12,05,02,04,17.70
2012,12,05,02,05,19.30
2012,12,05,02,06,16.10
2012,12,05,02,07,14.50
2012,12,05,02,08,9.60
2012,12,05,02,09,8.10
2012,12,05,02,10,16.10
2012,12,05,02,11,16.10
2012,12,05,02,12,9.60
2012,12,05,02,13,14.50
2012,12,05,02,14,9.60
2012,12,05,02,15,17.70
2012,12,05,02,16,16.10
2012,12,05,02,17,20.90
2012,12,05,02,18,19.30
2012,12,05,02,19,17.70
2012,12,05,02,20,14.50
2012,12,05,02,21,11.30
2012,12,05,02,22,19.30
2012,12,05,02,23,24.20
2012,12,05,02,24,20.90
2012,12,05,02,25,14.50
2012,12,05,02,26,20.90
2012,12,05,02,27,24.20
2012,12,05,02,28,11.30
2012,12,05,02,29,12.90
2012,12,05,02,30,9.60
2012,12,05,02,31,16.10
2012,12,05,02,32,8.10
2012,12,05,02,33,11.30
2012,12,05,02,34,8.10
2012,12,05,02,35,11.30
2012,12,05,02,36,16.10
2012,12,05,02,37,6.40
2012,12,05,02,38,3.20
2012,12,05,02,39,8.10
2012,12,05,02,40,19.30
2012,12,05,02,41,17.70
2012,12,05,02,42,14.50
2012,12,05,02,43,6.40
2012,12,05,02,44,6.40
2012,12,05,02,45,8.10
2012,12,05,02,46,11.30
2012,12,05,02,47,9.60
2012,12,05,02,48,8.10
2012,12,05,02,49,9.60
2012,12,05,02,50,6.40
2012,12,05,02,51,8.10
2012,12,05,02,52,6.40
2012,12,05,02,53,6.40
2012,12,05,02,54,4.80
2012,12,05,02,55,9.60
2012,12,05,02,56,4.80
2012,12,05,02,57,4.80
2012,12,05,02,58,4.80
2012,12,05,02,59,4.80
2012,12,05,03,00,9.60
2012,12,05,03,01,17.70
2012,12,05,03,02,16.10
2012,12,05,03,03,22.50
2012,12,05,03,04,32.20
2012,12,05,03,05,22.50
2012,12,05,03,06,25.70
2012,12,05,03,07,25.70
2012,12,05,03,08,25.70
2012,12,05,03,09,22.50
2012,12,05,03,10,25.70
2012,12,05,03,11,19.30
2012,12,05,03,12,20.90
2012,12,05,03,13,30.60
2012,12,05,03,14,30.60
2012,12,05,03,15,40.20
2012,12,05,03,16,40.20
2012,12,05,03,17,25.70
2012,12,05,03,18,25.70
2012,12,05,03,19,27.40
2012,12,05,03,20,20.90
2012,12,05,03,21,19.30
2012,12,05,03,22,25.70
2012,12,05,03,23,25.70
2012,12,05,03,24,27.40
2012,12,05,03,25,22.50
2012,12,05,03,26,17.70
2012,12,05,03,27,33.80
2012,12,05,03,28,25.70
2012,12,05,03,29,29.00
2012,12,05,03,30,25.70
2012,12,05,03,31,24.20
2012,12,05,03,32,20.90
2012,12,05,03,33,22.50
2012,12,05,03,34,19.30
2012,12,05,03,35,19.30
2012,12,05,03,36,19.30
2012,12,05,03,37,17.70
2012,12,05,03,38,17.70
2012,12,05,03,39,16.10
2012,12,05,03,40,17.70
2012,12,05,03,41,17.70
2012,12,05,03,42,14.50
2012,12,05,03,43,19.30
2012,12,05,03,44,16.10
2012,12,05,03,45,17.70
2012,12,05,03,46,12.90
2012,12,05,03,47,14.50
2012,12,05,03,48,16.10
2012,12,05,03,49,16.10
2012,12,05,03,50,9.60
2012,12,05,03,51,9.60
2012,12,05,03,52,11.30
2012,12,05,03,53,6.40
2012,12,05,03,54,11.30
2012,12,05,03,55,17.70
2012,12,05,03,56,16.10
2012,12,05,03,57,11.30
2012,12,05,03,58,14.50
2012,12,05,03,59,12.90
2012,12,05,04,00,9.60
2012,12,05,04,01,24.20
2012,12,05,04,02,19.30
2012,12,05,04,03,14.50
2012,12,05,04,04,20.90
2012,12,05,04,05,24.20
2012,12,05,04,06,24.20
2012,12,05,04,07,29.00
2012,12,05,04,08,25.70
2012,12,05,04,09,29.00
2012,12,05,04,10,27.40
2012,12,05,04,11,29.00
2012,12,05,04,12,24.20
2012,12,05,04,13,17.70
2012,12,05,04,14,17.70
2012,12,05,04,15,14.50
2012,12,05,04,16,9.60
2012,12,05,04,17,8.10
2012,12,05,04,18,11.30
2012,12,05,04,19,11.30
2012,12,05,04,20,8.10
2012,12,05,04,21,22.50
2012,12,05,04,22,22.50
2012,12,05,04,23,16.10
2012,12,05,04,24,11.30
2012,12,05,04,25,8.10
2012,12,05,04,26,16.10
2012,12,05,04,27,20.90
2012,12,05,04,28,20.90
2012,12,05,04,29,19.30
2012,12,05,04,30,19.30
2012,12,05,04,31,9.60
2012,12,05,04,32,16.10
2012,12,05,04,33,16.10
2012,12,05,04,34,20.90
2012,12,05,04,35,19.30
2012,12,05,04,36,17.70
2012,12,05,04,37,16.10
2012,12,05,04,38,19.30
2012,12,05,04,39,9.60
2012,12,05,04,40,14.50
2012,12,05,04,41,14.50
2012,12,05,04,42,11.30
2012,12,05,04,43,11.30
2012,12,05,04,44,6.40
2012,12,05,04,45,16.10
2012,12,05,04,46,11.30
2012,12,05,04,47,9.60
2012,12,05,04,48,9.60
2012,12,05,04,49,4.80
2012,12,05,04,50,4.80
2012,12,05,04,51,1.60
2012,12,05,04,52,1.60
2012,12,05,04,53,12.90
2012,12,05,04,54,11.30
2012,12,05,04,55,9.60
2012,12,05,04,56,6.40
2012,12,05,04,57,4.80
2012,12,05,04,58,1.60
2012,12,05,04,59,17.70
2012,12,05,05,00,25.70
2012,12,05,05,01,20.90
2012,12,05,05,02,9.60
2012,12,05,05,03,4.80
2012,12,05,05,04,6.40
2012,12,05,05,05,4.80
2012,12,05,05,06,6.40
2012,12,05,05,07,4.80
2012,12,05,05,08,4.80
2012,12,05,05,09,17.70
2012,12,05,05,10,9.60
2012,12,05,05,11,9.60
2012,12,05,05,12,9.60
2012,12,05,05,13,9.60
2012,12,05,05,14,4.80
2012,12,05,05,16,1.60
2012,12,05,05,17,1.60
2012,12,05,05,18,1.60
2012,12,05,05,19,6.40
2012,12,05,05,20,9.60
2012,12,05,05,21,9.60
2012,12,05,05,22,8.10
2012,12,05,05,23,3.20
2012,12,05,05,24,1.60
2012,12,05,05,25,4.80
2012,12,05,05,26,4.80
2012,12,05,05,27,8.10
2012,12,05,05,30,1.60
2012,12,05,05,31,9.60
2012,12,05,05,32,11.30
2012,12,05,05,33,3.20
2012,12,05,05,34,1.60
2012,12,05,05,35,3.20
2012,12,05,05,37,3.20
2012,12,05,05,38,1.60
2012,12,05,05,42,3.20
2012,12,05,05,43,6.40
2012,12,05,05,44,4.80
2012,12,05,05,45,4.80
2012,12,05,05,46,3.20
2012,12,05,05,47,3.20
2012,12,05,05,48,3.20
2012,12,05,05,50,1.60
2012,12,05,05,51,6.40
2012,12,05,05,52,4.80
2012,12,05,05,53,1.60
2012,12,05,05,54,1.60
2012,12,05,05,55,3.20
2012,12,05,05,56,1.60
2012,12,05,05,58,4.80
2012,12,05,05,59,8.10
2012,12,05,06,00,6.40
2012,12,05,06,01,6.40
2012,12,05,06,02,9.60
2012,12,05,06,03,4.80
2012,12,05,06,04,4.80
2012,12,05,06,05,6.40
2012,12,05,06,06,6.40
2012,12,05,06,07,8.10
2012,12,05,06,08,4.80
2012,12,05,06,09,3.20
2012,12,05,06,10,6.40
2012,12,05,06,11,9.60
2012,12,05,06,12,4.80
2012,12,05,06,13,3.20
2012,12,05,06,14,4.80
2012,12,05,06,15,4.80
2012,12,05,06,16,4.80
2012,12,05,06,17,3.20
2012,12,05,06,18,1.60
2012,12,05,06,19,3.20
2012,12,05,06,20,1.60
2012,12,05,06,21,1.60
2012,12,05,06,22,1.60
2012,12,05,06,23,1.60
2012,12,05,06,24,3.20
2012,12,05,06,26,1.60
2012,12,05,06,29,3.20
2012,12,05,06,30,1.60
2012,12,05,06,31,6.40
2012,12,05,06,32,6.40
2012,12,05,06,33,6.40
2012,12,05,06,34,6.40
2012,12,05,06,35,6.40
2012,12,05,06,36,12.90
2012,12,05,06,37,3.20
2012,12,05,06,38,1.60
2012,12,05,06,39,1.60
2012,12,05,06,40,3.20
2012,12,05,06,41,3.20
2012,12,05,06,42,1.60
2012,12,05,06,43,8.10
2012,12,05,06,44,4.80
2012,12,05,06,47,1.60
2012,12,05,06,48,3.20
2012,12,05,06,49,3.20
2012,12,05,06,50,3.20
2012,12,05,06,53,4.80
2012,12,05,06,54,3.20
2012,12,05,06,56,4.80
2012,12,05,06,57,4.80
2012,12,05,06,58,1.60
2012,12,05,07,00,4.80
2012,12,05,07,01,1.60
2012,12,05,07,04,1.60
2012,12,05,07,05,9.60
2012,12,05,07,06,9.60
2012,12,05,07,07,9.60
2012,12,05,07,08,4.80
2012,12,05,07,09,1.60
2012,12,05,07,12,3.20
2012,12,05,07,13,1.60
2012,12,05,07,14,8.10
2012,12,05,07,15,6.40
2012,12,05,07,16,3.20
2012,12,05,07,17,4.80
2012,12,05,07,18,4.80
2012,12,05,07,19,4.80
2012,12,05,07,20,8.10
2012,12,05,07,21,4.80
2012,12,05,07,23,3.20
2012,12,05,07,24,3.20
2012,12,05,07,25,3.20
2012,12,05,07,26,1.60
2012,12,05,07,27,4.80
2012,12,05,07,28,3.20
2012,12,05,07,29,3.20
2012,12,05,07,30,3.20
2012,12,05,07,32,1.60
2012,12,05,07,33,4.80
2012,12,05,07,34,6.40
2012,12,05,07,35,8.10
2012,12,05,07,36,4.80
2012,12,05,07,37,4.80
2012,12,05,07,38,3.20
2012,12,05,07,39,9.60
2012,12,05,07,40,8.10
2012,12,05,07,41,8.10
2012,12,05,07,42,16.10
2012,12,05,07,43,24.20
2012,12,05,07,44,24.20
2012,12,05,07,45,24.20
2012,12,05,07,46,24.20
2012,12,05,07,47,19.30
2012,12,05,07,48,19.30
2012,12,05,07,49,24.20
2012,12,05,07,50,22.50
2012,12,05,07,51,17.70
2012,12,05,07,52,16.10
2012,12,05,07,53,16.10
2012,12,05,07,54,6.40
2012,12,05,07,55,6.40
2012,12,05,07,56,14.50
2012,12,05,07,57,8.10
2012,12,05,07,58,6.40
2012,12,05,07,59,9.60
2012,12,05,08,00,16.10
2012,12,05,08,01,16.10
2012,12,05,08,02,24.20
2012,12,05,08,03,20.90
2012,12,05,08,04,17.70
2012,12,05,08,05,16.10
2012,12,05,08,06,16.10
2012,12,05,08,07,19.30
2012,12,05,08,08,22.50
2012,12,05,08,09,12.90
2012,12,05,08,10,14.50
2012,12,05,08,11,16.10
2012,12,05,08,12,9.60
2012,12,05,08,13,6.40
2012,12,05,08,14,4.80
2012,12,05,08,15,6.40
2012,12,05,08,16,9.60
2012,12,05,08,17,8.10
2012,12,05,08,18,17.70
2012,12,05,08,19,16.10
2012,12,05,08,20,11.30
2012,12,05,08,21,6.40
2012,12,05,08,22,11.30
2012,12,05,08,23,6.40
2012,12,05,08,24,3.20
2012,12,05,08,25,4.80
2012,12,05,08,26,4.80
2012,12,05,08,27,4.80
2012,12,05,08,28,6.40
2012,12,05,08,29,4.80
2012,12,05,08,30,6.40
2012,12,05,08,31,6.40
2012,12,05,08,32,1.60
2012,12,05,08,33,3.20
2012,12,05,08,36,1.60
2012,12,05,08,38,3.20
2012,12,05,08,39,1.60
2012,12,05,08,40,6.40
2012,12,05,08,41,3.20
2012,12,05,08,42,3.20
2012,12,05,08,43,4.80
2012,12,05,08,44,3.20
2012,12,05,08,45,8.10
2012,12,05,08,46,16.10
2012,12,05,08,47,16.10
2012,12,05,08,48,12.90
2012,12,05,08,49,11.30
2012,12,05,08,50,11.30
2012,12,05,08,51,12.90
2012,12,05,08,52,14.50
2012,12,05,08,53,20.90
2012,12,05,08,54,11.30
2012,12,05,08,55,11.30
2012,12,05,08,56,16.10
2012,12,05,08,57,16.10
2012,12,05,08,58,17.70
2012,12,05,08,59,16.10
2012,12,05,09,00,11.30
2012,12,05,09,01,19.30
2012,12,05,09,02,14.50
2012,12,05,09,03,11.30
2012,12,05,09,04,16.10
2012,12,05,09,05,19.30
2012,12,05,09,06,16.10
2012,12,05,09,07,17.70
2012,12,05,09,08,19.30
2012,12,05,09,09,22.50
2012,12,05,09,10,19.30
2012,12,05,09,11,14.50
2012,12,05,09,12,17.70
2012,12,05,09,13,17.70
2012,12,05,09,14,16.10
2012,12,05,09,15,11.30
2012,12,05,09,16,12.90
2012,12,05,09,17,16.10
2012,12,05,09,18,14.50
2012,12,05,09,19,17.70
2012,12,05,09,20,14.50
2012,12,05,09,21,11.30
2012,12,05,09,22,11.30
2012,12,05,09,23,12.90
2012,12,05,09,24,11.30
2012,12,05,09,25,8.10
2012,12,05,09,26,9.60
2012,12,05,09,27,9.60
2012,12,05,09,28,11.30
2012,12,05,09,29,9.60
2012,12,05,09,30,6.40
2012,12,05,09,31,1.60
2012,12,05,09,32,4.80
2012,12,05,09,33,4.80
2012,12,05,09,34,3.20
2012,12,05,09,35,1.60
2012,12,05,09,38,3.20
2012,12,05,09,39,3.20
2012,12,05,09,40,3.20
2012,12,05,09,41,1.60
2012,12,05,09,42,3.20
2012,12,05,09,43,3.20
2012,12,05,09,44,4.80
2012,12,05,09,45,3.20
2012,12,05,09,46,1.60
2012,12,05,09,47,1.60
2012,12,05,09,49,1.60
2012,12,05,09,50,4.80
2012,12,05,09,51,4.80
2012,12,05,09,52,3.20
2012,12,05,09,53,1.60
2012,12,05,09,56,1.60
2012,12,05,09,57,3.20
2012,12,05,09,58,3.20
2012,12,05,09,59,3.20
2012,12,05,10,00,4.80
2012,12,05,10,01,4.80
2012,12,05,10,02,4.80
2012,12,05,10,03,4.80
2012,12,05,10,04,4.80
2012,12,05,10,05,4.80
2012,12,05,10,06,1.60
2012,12,05,10,08,1.60
2012,12,05,10,09,3.20
2012,12,05,10,10,3.20
2012,12,05,10,11,3.20
2012,12,05,10,12,1.60
2012,12,05,10,14,1.60
2012,12,05,10,15,3.20
2012,12,05,10,16,4.80
2012,12,05,10,17,8.10
2012,12,05,10,18,9.60
2012,12,05,10,19,6.40
2012,12,05,10,20,6.40
2012,12,05,10,21,3.20
2012,12,05,10,22,8.10
2012,12,05,10,23,4.80
2012,12,05,10,24,6.40
2012,12,05,10,25,3.20
2012,12,05,10,26,1.60
2012,12,05,10,27,4.80
2012,12,05,10,28,4.80
2012,12,05,10,29,8.10
2012,12,05,10,30,8.10
2012,12,05,10,31,6.40
2012,12,05,10,32,3.20
2012,12,05,10,33,3.20
2012,12,05,10,34,1.60
2012,12,05,10,35,6.40
2012,12,05,10,36,3.20
2012,12,05,10,37,4.80
2012,12,05,10,38,4.80
2012,12,05,10,39,4.80
2012,12,05,10,40,4.80
2012,12,05,10,41,4.80
2012,12,05,10,42,8.10
2012,12,05,10,43,6.40
2012,12,05,10,44,6.40
2012,12,05,10,45,9.60
2012,12,05,10,46,8.10
2012,12,05,10,47,3.20
2012,12,05,10,48,1.60
2012,12,05,10,49,3.20
2012,12,05,10,50,3.20
2012,12,05,10,51,8.10
2012,12,05,10,52,8.10
2012,12,05,10,53,8.10
2012,12,05,10,54,8.10
2012,12,05,10,55,6.40
2012,12,05,10,56,4.80
2012,12,05,10,57,4.80
2012,12,05,10,58,3.20
2012,12,05,10,59,1.60
2012,12,05,11,00,3.20
2012,12,05,11,01,3.20
2012,12,05,11,03,1.60
2012,12,05,11,04,1.60
2012,12,05,11,07,1.60
2012,12,05,11,08,1.60
2012,12,05,11,09,6.40
2012,12,05,11,10,6.40
2012,12,05,11,11,4.80
2012,12,05,11,12,4.80
2012,12,05,11,13,4.80
2012,12,05,11,14,9.60
2012,12,05,11,15,9.60
2012,12,05,11,16,12.90
2012,12,05,11,17,9.60
2012,12,05,11,18,4.80
2012,12,05,11,19,6.40
2012,12,05,11,20,3.20
2012,12,05,11,21,8.10
2012,12,05,11,22,6.40
2012,12,05,11,23,4.80
2012,12,05,11,24,6.40
2012,12,05,11,25,6.40
2012,12,05,11,27,1.60
2012,12,05,11,28,3.20
2012,12,05,11,29,4.80
2012,12,05,11,30,4.80
2012,12,05,11,31,1.60
2012,12,05,11,32,3.20
2012,12,05,11,33,3.20
2012,12,05,11,34,4.80
2012,12,05,11,35,6.40
2012,12,05,11,36,4.80
2012,12,05,11,37,1.60
2012,12,05,11,38,8.10
2012,12,05,11,39,8.10
2012,12,05,11,40,6.40
2012,12,05,11,41,4.80
2012,12,05,11,42,6.40
2012,12,05,11,43,9.60
2012,12,05,11,44,4.80
2012,12,05,11,45,3.20
2012,12,05,11,46,1.60
2012,12,05,11,47,3.20
2012,12,05,11,48,3.20
2012,12,05,11,49,4.80
2012,12,05,11,50,3.20
2012,12,05,11,51,3.20
2012,12,05,11,52,1.60
2012,12,05,11,53,4.80
2012,12,05,11,54,4.80
2012,12,05,11,58,4.80
2012,12,05,11,59,6.40
2012,12,05,12,00,4.80
2012,12,05,12,01,4.80
2012,12,05,12,02,3.20
2012,12,05,12,03,6.40
2012,12,05,12,04,8.10
2012,12,05,12,05,4.80
2012,12,05,12,06,3.20
2012,12,05,12,07,9.60
2012,12,05,12,08,9.60
2012,12,05,12,09,4.80
2012,12,05,12,10,8.10
2012,12,05,12,11,8.10
2012,12,05,12,12,8.10
2012,12,05,12,13,4.80
2012,12,05,12,14,6.40
2012,12,05,12,15,6.40
2012,12,05,12,16,6.40
2012,12,05,12,17,3.20
2012,12,05,12,18,4.80
2012,12,05,12,19,9.60
2012,12,05,12,20,17.70
2012,12,05,12,21,14.50
2012,12,05,12,22,19.30
2012,12,05,12,23,6.40
2012,12,05,12,24,4.80
2012,12,05,12,25,4.80
2012,12,05,12,26,4.80
2012,12,05,12,27,4.80
2012,12,05,12,28,6.40
2012,12,05,12,29,12.90
2012,12,05,12,30,6.40
2012,12,05,12,31,11.30
2012,12,05,12,32,9.60
2012,12,05,12,33,14.50
2012,12,05,12,34,19.30
2012,12,05,12,35,9.60
2012,12,05,12,36,6.40
2012,12,05,12,37,14.50
2012,12,05,12,38,12.90
2012,12,05,12,39,9.60
2012,12,05,12,40,9.60
2012,12,05,12,41,9.60
2012,12,05,12,42,9.60
2012,12,05,12,43,9.60
2012,12,05,12,44,9.60
2012,12,05,12,45,9.60
2012,12,05,12,46,9.60
2012,12,05,12,47,9.60
2012,12,05,12,48,9.60
2012,12,05,13,39,3.20
2012,12,05,13,40,8.10
2012,12,05,13,41,14.50
2012,12,05,13,42,8.10
2012,12,05,13,43,14.50
2012,12,05,13,44,9.60
2012,12,05,13,45,8.10
2012,12,05,13,46,6.40
2012,12,05,13,47,6.40
2012,12,05,13,48,6.40
2012,12,05,13,49,9.60
2012,12,05,13,50,14.50
2012,12,05,13,51,9.60
2012,12,05,13,52,3.20
2012,12,05,13,53,4.80
2012,12,05,13,54,6.40
2012,12,05,13,55,8.10
2012,12,05,13,56,9.60
2012,12,05,13,57,17.70
2012,12,05,13,58,8.10
2012,12,05,13,59,8.10
2012,12,05,14,00,6.40
2012,12,05,14,01,3.20
2012,12,05,14,02,8.10
2012,12,05,14,03,6.40
2012,12,05,14,04,6.40
2012,12,05,14,05,3.20
2012,12,05,14,06,4.80
2012,12,05,14,07,8.10
2012,12,05,14,08,11.30
2012,12,05,14,09,4.80
2012,12,05,14,10,9.60
2012,12,05,14,11,6.40
2012,12,05,14,12,9.60
2012,12,05,14,13,11.30
2012,12,05,14,14,8.10
2012,12,05,14,15,6.40
2012,12,05,14,16,9.60
2012,12,05,14,17,14.50
2012,12,05,14,18,22.50
2012,12,05,14,19,19.30
2012,12,05,14,20,19.30
2012,12,05,14,21,17.70
2012,12,05,14,22,14.50
2012,12,05,14,23,14.50
2012,12,05,14,24,4.80
2012,12,05,14,25,3.20
2012,12,05,14,28,3.20
2012,12,05,14,29,4.80
2012,12,05,14,30,9.60
2012,12,05,14,31,16.10
2012,12,05,14,32,4.80
2012,12,05,14,33,3.20
2012,12,05,14,34,3.20
2012,12,05,14,35,8.10
2012,12,05,14,36,9.60
2012,12,05,14,37,9.60
2012,12,05,14,38,8.10
2012,12,05,14,39,14.50
2012,12,05,14,40,11.30
2012,12,05,14,41,9.60
2012,12,05,14,42,8.10
2012,12,05,14,43,8.10
2012,12,05,14,44,12.90
2012,12,05,14,45,9.60
2012,12,05,14,46,9.60
2012,12,05,14,47,14.50
2012,12,05,14,48,12.90
2012,12,05,14,49,8.10
2012,12,05,14,50,9.60
2012,12,05,14,51,12.90
2012,12,05,14,52,16.10
2012,12,05,14,53,8.10
2012,12,05,14,54,6.40
2012,12,05,14,55,8.10
2012,12,05,14,56,9.60
2012,12,05,14,57,11.30
2012,12,05,14,58,12.90
2012,12,05,14,59,6.40
2012,12,05,15,00,8.10
2012,12,05,15,01,12.90
2012,12,05,15,02,11.30
2012,12,05,15,03,11.30
2012,12,05,15,04,11.30
2012,12,05,15,05,11.30
2012,12,05,15,06,8.10
2012,12,05,15,07,8.10
2012,12,05,15,08,16.10
2012,12,05,15,09,16.10
2012,12,05,15,10,11.30
2012,12,05,15,11,17.70
2012,12,05,15,12,16.10
2012,12,05,15,13,16.10
2012,12,05,15,14,8.10
2012,12,05,15,15,17.70
2012,12,05,15,16,9.60
2012,12,05,15,17,17.70
2012,12,05,15,18,14.50
2012,12,05,15,19,14.50
2012,12,05,15,20,14.50
2012,12,05,15,21,9.60
2012,12,05,15,22,9.60
2012,12,05,15,23,11.30
2012,12,05,15,24,9.60
2012,12,05,15,25,6.40
2012,12,05,15,26,4.80
2012,12,05,15,27,1.60
2012,12,05,15,28,4.80
2012,12,05,15,29,8.10
2012,12,05,15,30,6.40
2012,12,05,15,31,4.80
2012,12,05,15,32,4.80
2012,12,05,15,33,6.40
2012,12,05,15,34,9.60
2012,12,05,15,35,8.10
2012,12,05,15,36,6.40
2012,12,05,15,37,8.10
2012,12,05,15,38,4.80
2012,12,05,15,39,6.40
2012,12,05,15,40,4.80
2012,12,05,15,41,3.20
2012,12,05,15,42,6.40
2012,12,05,15,43,6.40
2012,12,05,15,44,8.10
2012,12,05,15,45,4.80
2012,12,05,15,46,1.60
2012,12,05,15,47,6.40
2012,12,05,15,48,6.40
2012,12,05,15,49,4.80
2012,12,05,15,50,4.80
2012,12,05,15,51,1.60
2012,12,05,15,52,1.60
2012,12,05,15,53,3.20
2012,12,05,15,54,3.20
2012,12,05,15,55,6.40
2012,12,05,15,56,6.40
2012,12,05,15,57,8.10
2012,12,05,15,58,4.80
2012,12,05,15,59,4.80
2012,12,05,16,00,3.20
2012,12,05,16,01,6.40
2012,12,05,16,02,4.80
2012,12,05,16,03,3.20
2012,12,05,16,04,4.80
2012,12,05,16,05,6.40
2012,12,05,16,06,6.40
2012,12,05,16,07,8.10
2012,12,05,16,08,8.10
2012,12,05,16,09,8.10
2012,12,05,16,10,8.10
2012,12,05,16,11,6.40
2012,12,05,16,12,6.40
2012,12,05,16,13,3.20
2012,12,05,16,14,1.60
2012,12,05,16,15,3.20
2012,12,05,16,16,3.20
2012,12,05,16,17,3.20
2012,12,05,16,18,8.10
2012,12,05,16,19,4.80
2012,12,05,16,20,4.80
2012,12,05,16,21,3.20
2012,12,05,16,22,1.60
2012,12,05,16,23,4.80
2012,12,05,16,24,4.80
2012,12,05,16,25,1.60
2012,12,05,16,26,3.20
2012,12,05,16,27,3.20
2012,12,05,16,28,3.20
2012,12,05,16,29,3.20
2012,12,05,16,30,1.60
2012,12,05,16,37,4.80
2012,12,05,16,38,3.20
2012,12,05,16,46,4.80
2012,12,05,16,47,4.80
2012,12,05,16,48,3.20
2012,12,05,16,52,3.20
2012,12,05,16,53,3.20
2012,12,05,16,54,3.20
2012,12,05,16,55,1.60
2012,12,05,16,59,1.60
2012,12,05,17,01,1.60
2012,12,05,17,02,1.60
2012,12,05,17,03,1.60
2012,12,05,17,06,1.60
2012,12,05,17,07,1.60
2012,12,05,17,08,3.20
2012,12,05,17,09,4.80
2012,12,05,17,10,4.80
2012,12,05,17,11,4.80
2012,12,05,17,12,1.60
2012,12,05,17,13,4.80
2012,12,05,17,14,6.40
2012,12,05,17,15,1.60
2012,12,05,17,16,3.20
2012,12,05,17,17,4.80
2012,12,05,17,18,4.80
2012,12,05,17,19,3.20
2012,12,05,17,20,1.60
2012,12,05,17,21,3.20
2012,12,05,17,22,6.40
2012,12,05,17,23,8.10
2012,12,05,17,24,4.80
2012,12,05,17,25,4.80
2012,12,05,17,26,3.20
2012,12,05,17,27,4.80
2012,12,05,17,28,3.20
2012,12,05,17,29,6.40
2012,12,05,17,30,3.20
2012,12,05,17,31,1.60
2012,12,05,17,32,1.60
2012,12,05,17,33,4.80
2012,12,05,17,34,3.20
2012,12,05,17,35,1.60
2012,12,05,17,37,3.20
2012,12,05,17,38,6.40
2012,12,05,17,39,6.40
2012,12,05,17,40,3.20
2012,12,05,17,41,3.20
2012,12,05,17,42,6.40
2012,12,05,17,43,3.20
2012,12,05,17,45,1.60
2012,12,05,17,48,3.20
2012,12,05,17,49,4.80
2012,12,05,17,50,3.20
2012,12,05,17,51,3.20
2012,12,05,17,52,3.20
2012,12,05,17,53,1.60
2012,12,05,17,54,6.40
2012,12,05,17,55,1.60
2012,12,05,17,56,3.20
2012,12,05,17,57,3.20
2012,12,05,17,58,4.80
2012,12,05,17,59,6.40
2012,12,05,18,00,1.60
2012,12,05,18,01,4.80
2012,12,05,18,02,4.80
2012,12,05,18,03,6.40
2012,12,05,18,04,4.80
2012,12,05,18,05,6.40
2012,12,05,18,06,6.40
2012,12,05,18,07,6.40
2012,12,05,18,08,4.80
2012,12,05,18,09,4.80
2012,12,05,18,10,3.20
2012,12,05,18,11,3.20
2012,12,05,18,12,3.20
2012,12,05,18,13,1.60
2012,12,05,18,14,1.60
2012,12,05,18,15,4.80
2012,12,05,18,16,4.80
2012,12,05,18,17,8.10
2012,12,05,18,18,9.60
2012,12,05,18,19,6.40
2012,12,05,18,20,6.40
2012,12,05,18,21,6.40
2012,12,05,18,22,8.10
2012,12,05,18,23,8.10
2012,12,05,18,24,6.40
2012,12,05,18,25,3.20
2012,12,05,18,26,11.30
2012,12,05,18,27,8.10
2012,12,05,18,28,9.60
2012,12,05,18,29,11.30
2012,12,05,18,30,4.80
2012,12,05,18,31,4.80
2012,12,05,18,32,4.80
2012,12,05,18,33,8.10
2012,12,05,18,34,6.40
2012,12,05,18,35,4.80
2012,12,05,18,36,9.60
2012,12,05,18,37,12.90
2012,12,05,18,38,16.10
2012,12,05,18,39,11.30
2012,12,05,18,40,8.10
2012,12,05,18,41,11.30
2012,12,05,18,42,8.10
2012,12,05,18,43,11.30
2012,12,05,18,44,11.30
2012,12,05,18,45,11.30
2012,12,05,18,46,16.10
2012,12,05,18,47,8.10
2012,12,05,18,48,4.80
2012,12,05,18,49,8.10
2012,12,05,18,50,11.30
2012,12,05,18,51,8.10
2012,12,05,18,52,9.60
2012,12,05,18,53,4.80
2012,12,05,18,54,6.40
2012,12,05,18,55,8.10
2012,12,05,18,56,9.60
2012,12,05,18,57,6.40
2012,12,05,18,58,9.60
2012,12,05,18,59,8.10
2012,12,05,19,00,6.40
2012,12,05,19,01,3.20
2012,12,05,19,02,4.80
2012,12,05,19,03,4.80
2012,12,05,19,04,6.40
2012,12,05,19,05,6.40
2012,12,05,19,06,3.20
2012,12,05,19,07,1.60
2012,12,05,19,08,1.60
2012,12,05,19,09,3.20
2012,12,05,19,10,1.60
2012,12,05,19,11,1.60
2012,12,05,19,12,3.20
2012,12,05,19,13,1.60
2012,12,05,19,14,1.60
2012,12,05,19,15,3.20
2012,12,05,19,16,6.40
2012,12,05,19,17,6.40
2012,12,05,19,18,3.20
2012,12,05,19,19,1.60
2012,12,05,19,21,3.20
2012,12,05,19,22,1.60
2012,12,05,19,23,3.20
2012,12,05,19,24,3.20
2012,12,05,19,25,1.60
2012,12,05,19,27,1.60
2012,12,05,19,28,3.20
2012,12,05,19,29,3.20
2012,12,05,19,30,4.80
2012,12,05,19,31,3.20
2012,12,05,19,32,3.20
2012,12,05,19,33,4.80
2012,12,05,19,34,4.80
2012,12,05,19,35,4.80
2012,12,05,19,36,3.20
2012,12,05,19,37,4.80
2012,12,05,19,38,3.20
2012,12,05,19,39,4.80
2012,12,05,19,40,4.80
2012,12,05,19,41,3.20
2012,12,05,19,42,4.80
2012,12,05,19,43,6.40
2012,12,05,19,44,4.80
2012,12,05,19,45,4.80
2012,12,05,19,46,4.80
2012,12,05,19,47,3.20
2012,12,05,19,48,1.60
2012,12,05,19,49,1.60
2012,12,05,19,50,3.20
2012,12,05,19,51,3.20
2012,12,05,19,52,6.40
2012,12,05,19,53,6.40
2012,12,05,19,54,6.40
2012,12,05,19,55,6.40
2012,12,05,19,56,9.60
2012,12,05,19,57,8.10
2012,12,05,19,58,6.40
2012,12,05,19,59,8.10
2012,12,05,20,00,8.10
2012,12,05,20,01,8.10
2012,12,05,20,02,8.10
2012,12,05,20,03,6.40
2012,12,05,20,04,6.40
2012,12,05,20,05,6.40